Hourly Data Report for July 08, 2021

CAMPBELL RIVER A
BRITISH COLUMBIA
Current Station Operator: NAVCAN

49°57'07.000" N
125°16'23.000" W
108.80 m
1021270
YBL

Download Data

Hourly Data (July 2021)
Hourly Data Report for July 8, 2021
TIME
LST
Temp Definition
°C
Dew Point Definition
°C
Rel Hum Definition
%
Precip. Amount Definition
mm

Wind Dir Definition
10's deg

Wind Spd Definition
km/h
Visibility Definition
km
Stn Press Definition
kPa
Hmdx Definition


Wind Chill Definition


Weather Definition


00:00 13.9 13.6 98 LegendMM 30 4 LegendMM 100.31     LegendNANA
01:00 14.1 13.7 97 LegendMM 30 6 LegendMM 100.34     LegendNANA
02:00 14.5 12.7 89 LegendMM 32 6 LegendMM 100.37     LegendNANA
03:00 14.2 10.6 79 LegendMM 30 8 LegendMM 100.38     LegendNANA
04:00 13.9 11.0 83 LegendMM 31 5 LegendMM 100.39     LegendNANA
05:00 13.2 10.7 85 LegendMM 32 6 LegendMM 100.39     LegendNANA
06:00 14.1 10.9 81 LegendMM 34 6 LegendMM 100.38     LegendNANA
07:00 14.7 10.9 78 LegendMM 31 10 LegendMM 100.39     LegendNANA
08:00 15.8 11.3 74 LegendMM 32 7 LegendMM 100.39     LegendNANA
09:00 18.9 12.3 65 LegendMM 7 12 LegendMM 100.39     LegendNANA
10:00 19.6 12.7 64 LegendMM 10 8 LegendMM 100.38     LegendNANA
11:00 21.0 12.9 60 LegendMM 10 13 LegendMM 100.40     LegendNANA
12:00 21.5 13.1 58 LegendMM 9 13 LegendMM 100.41     LegendNANA
13:00 22.4 12.6 53 LegendMM 6 13 LegendMM 100.38 25   LegendNANA
14:00 22.9 13.2 54 LegendMM 8 11 LegendMM 100.32 26   LegendNANA
15:00 24.0 13.1 50 LegendMM 7 15 LegendMM 100.29 27   LegendNANA
16:00 24.4 13.1 49 LegendMM 12 9 LegendMM 100.27 27   LegendNANA
17:00 24.8 14.0 51 LegendMM 8 13 LegendMM 100.24 28   LegendNANA
18:00 24.4 13.2 49 LegendMM 9 7 LegendMM 100.21 27   LegendNANA
19:00 22.9 12.6 52 LegendMM 10 5 LegendMM 100.22 25   LegendNANA
20:00 19.1 14.3 73 LegendMM 14 3 LegendMM 100.28     LegendNANA
21:00 16.6 13.6 82 LegendMM 31 3 LegendMM 100.37     LegendNANA
22:00 15.3 13.8 91 LegendMM 32 8 LegendMM 100.43     LegendNANA
23:00 13.1 12.2 94 LegendMM 29 4 LegendMM 100.49     LegendNANA

Notes on Data Quality.

Legend

  • E = Estimated
  • M = Missing
  • NA = Not Available*
  • [empty] = Indicates an unobserved value
Date modified: